Location: Clermont
(50.2608°N, 4.3172°E)
Time: 06:07:23
(UTC+00:00)

Cosmos 1763 Rocket - Pass Details

Date: 13 August 2020
Orbit: 733 x 780 km, 74.0° (Epoch: 26 September)

Event Time Altitude Azimuth Distance (km) Brightness Sun altitude
Rises 20:41:00 0° 335° (NNW) 3,276 8.1 -13.6°
Reaches altitude 10° 20:43:24 10° 336° (NNW) 2,345 7.2 -13.9°
Maximum altitude 20:48:45 90° 87° (E) 787 3.5 -14.5°
Enters shadow 20:52:25 21° 158° (SSE) 1,702 4.7 -14.9°
